Tracking 31027 objects as of 19-Jul-2025
HD Live streaming from Space Station
objects crossing your sky now

ARIANE 3 DEB

Track ARIANE 3 DEB now!


NORAD ID: 33538
Int'l Code: 1988-081N
Perigee: 577.4 km
Apogee: 35,997.2 km
Inclination: 6.9 °
Period: 642.3 minutes
Semi major axis: 24658 km
RCS: 0.0238 m2 (small)
Launch date: September 8, 1988
Source: France (FR)
Launch site: FRENCH GUIANA (FRGUI)

Note: This is SATELLITE DEBRIS
Your satellite tracking list
GALASSIA
Track 1 satellite(s)




NASA's NSSDC Master Catalog

Two Line Element Set (TLE):
1 33538U 88081N   25198.06486219  .00000130  00000-0  17817-2 0  9998
2 33538   6.9038 119.9857 7182119  59.5988 351.8278  2.24211391162955
Source of the keplerian elements: AFSPC